Regional Weather Roundup
Issued by NWS

Home | Current Version | Previous Version | Text Only | Print | Product List | Glossary On
Versions: 1 2 3 4 5 6 7 8 9 10 11 12 13 14 15 16 17 18 19 20 21 22 23 24 25 26 27 28 29 30 31 32 33 34 35 36 37 38 39 40 41 42 43 44 45 46 47 48 49 50
000
ASUS43 KIND 070509
RWRIN

WEATHER ROUNDUP FOR INDIANA
NATIONAL WEATHER SERVICE INDIANAPOLIS IN
1200 AM EST SAT MAR 07 2015

NOTE: "FAIR" INDICATES FEW OR NO CLOUDS BELOW 12,000 FEET WITH NO
SIGNIFICANT WEATHER AND/OR OBSTRUCTIONS TO VISIBILITY.

* - STATION DOES NOT REPORT WEATHER SUCH AS PRECIPITATION OR FOG.

+ - STATION NOT QUALITY CONTROLLED BY THE NATIONAL WEATHER SERVICE.
    USE DATA WITH CAUTION...ESPECIALLY DEWPOINT AND RELATIVE
    HUMIDITY OBSERVATIONS.

INZ001>003-010>013-019-020-070600-
NORTHWEST INDIANA

CITY           SKY/WX    TMP DP  RH WIND       PRES   REMARKS
GARY /AIRPORT/ PTCLDY    26  12  57 S8G17     30.17F WCI  17
KNOX *+          N/A     21   1  42 SW14      30.19F WCI   8
LA PORTE +     PTCLDY    23  14  69 SW13      30.19S WCI  11
MICHIGAN CITY+ PTCLDY    23  10  58 S10       30.18F WCI  12
MONTICELLO +   CLEAR     22  13  67 S14       30.22F WCI   9
RENSSELAER +   CLEAR     23  18  80 S20       30.21S WCI   8
VALPARAISO     PTCLDY    21  12  68 SW13      30.18F WCI   9

$$

LMZ046-743>745-070600-
SOUTHERN LAKE MICHIGAN

STATION/POSITION TIME  TEMP WIND        PRES
                       AIR  DIR/SP/G
                 (UTC) (F)  (DEG/KT/KT) (MB)
MICHIGAN CITY    0500   24  180/ 17/ 22   N/A

$$

INZ004-005-014>016-021>024-070600-
NORTH CENTRAL INDIANA

CITY           SKY/WX    TMP DP  RH WIND       PRES   REMARKS
GOSHEN         CLEAR     19  10  68 SW12      30.18F WCI   7
LOGANSPORT +   CLEAR     21  12  68 SW13      30.24F WCI   9
PERU/GRISSOM   PTCLDY    21  11  66 SW12      30.21F WCI   9
ROCHESTER +    CLEAR     25  14  63 SW13G20   30.22F WCI  13
SOUTH BEND     CLEAR     22  12  65 SW14      30.18F WCI   9
WARSAW +       FAIR      23  12  63 SW9       30.20F WCI  13

$$

INZ006>009-017-018-025>027-070600-
NORTHEAST INDIANA

CITY           SKY/WX    TMP DP  RH WIND       PRES   REMARKS
ANGOLA *+      CLEAR     19  10  68 SW8       30.17F WCI   9
AUBURN +       CLEAR     23  10  58 SW7       30.21F WCI  15
FORT WAYNE     PTCLDY    18  10  71 SW13      30.23F WCI   5
HUNTINGTON +   CLEAR     22   5  48 SW10G17   30.22F WCI  11

$$

INZ028-029-035-036-043>045-051>053-070600-
WEST CENTRAL INDIANA

CITY           SKY/WX    TMP DP  RH WIND       PRES   REMARKS
CRAWFORDSVL +  CLEAR     21   8  57 S15       30.27F WCI   7
GREENCASTLE +  CLEAR     25   9  50 SW7G16    30.30F WCI  17
LAFAYETTE      CLEAR     22  12  65 SW7       30.26F WCI  13
TERRE HAUTE    CLEAR     21  11  65 S8        30.32F WCI  11

$$

INZ030>032-037>040-046>048-054>057-064-065-070600-
CENTRAL INDIANA

CITY           SKY/WX    TMP DP  RH WIND       PRES   REMARKS
CP ATTERBURY + CLEAR     27  10  50 SW8       30.33F WCI  18
FRANKFORT +    CLEAR     22  14  70 S13       30.26F WCI  10
GREENWOOD *+   CLEAR     23   5  46 SW8       30.31F WCI  14
INDIANAPOLIS   PTCLDY    23   9  55 SW13      30.28F WCI  11
-EAGLE CREEK   CLEAR     24   9  52 SW12      30.28F WCI  13
KOKOMO *+        N/A    N/A N/A N/A MISG        N/A
MARION +       CLEAR     17   9  68 S9        30.26S WCI   6
MT COMFORT *+  CLEAR     21  -2  35 S7        30.30F WCI  13
SHELBYVILLE    CLEAR     23  12  62 S12       30.31F WCI  12
ZIONSVILLE +   CLEAR     24   9  52 SW15G21   30.27F WCI  11

$$

INZ033-034-041-042-049-050-058-059-070600-
EAST CENTRAL INDIANA

CITY           SKY/WX    TMP DP  RH WIND       PRES   REMARKS
MUNCIE         CLEAR     24   9  52 SW15G24   30.26F WCI  11

$$

INZ060-061-067>069-081>083-085>088-070600-
SOUTHWEST INDIANA

CITY           SKY/WX    TMP DP  RH WIND       PRES   REMARKS
EVANSVILLE     CLEAR     25  13  60 SW10      30.40F WCI  15
HUNTINGBURG *+ CLEAR     25   9  50 S8        30.40S WCI  16
WASHINGTON +   CLEAR     27   9  46 SW7       30.36F WCI  20

$$

INZ062-063-066-070>080-084-089>092-070600-
SOUTH CENTRAL AND SOUTHEAST INDIANA

CITY           SKY/WX    TMP DP  RH WIND       PRES   REMARKS
BLOOMINGTON    CLEAR     25  10  53 SW10      30.33S WCI  15
NORTH VERNON + CLEAR     25  12  58 S8        30.36F WCI  16
SEYMOUR +      CLEAR     25  10  54 S6        30.36F WCI  18

$$



USA.gov is the U.S. government's official web portal to all federal, state and local government web resources and services.